Flag for Switzerland Weather past 2 weeks in Schwyz, Schwyz, Switzerland

Now
49 °F

Cool.


Feels Like: 49 °F
Forecast: 42 / 69 °F
Wind: 1 mph from Southwest

Location: Altdorf


UV Index: 3 (Moderate)

Visibility: N/A


Pressure: 29.65 "Hg

Humidity: 81%

Dew point: 43 °F

Location of SchwyzLocation

Historic Weather in Schwyz

°F

Schwyz temperature yesterday

Maximum temperature yesterday: 63 °F (at 4:00 PM)
Minimum temperature yesterday: 36 °F (at 3:00 AM)
Average temperature yesterday: 49 °F

Past Weeks' High & Low Weather Summary

 TemperatureHumidityPressure
High67 °F (Apr 11, 5:00 PM)96% (Apr 6, 7:00 AM)30.34 "Hg (Apr 6, 7:00 AM)
Low31 °F (Apr 17, 7:00 AM)37% (Apr 15, 3:00 PM)29.59 "Hg (Apr 20, 6:00 PM)
Average51 °F68%30.06 "Hg
* Reported Apr 6 4:00 AM — Apr 21 4:00 AM, Schwyz, Weather by CustomWeather, © 2014

Note: Actual official high and low records may vary slightly from our data, if they occured in-between our weather recording intervals... More about our weather records

Advertising

Historic Weather Conditions — Data for Previous 24 hours

 ConditionsComfort  
Time TempWeatherWind HumidityBarometerVisibility
4:00 AM
Apr 21
49 °FCool.1 mph81%29.65 "HgN/A
3:00 AM48 °FCool.No wind82%29.65 "HgN/A
2:00 AM50 °FOvercast.No wind76%29.65 "Hg10 mi
1:00 AM49 °FCool.1 mph80%29.67 "HgN/A
12:00 AM48 °FCool.1 mph82%29.68 "HgN/A
11:00 PM
Apr 20
50 °FPassing clouds.2 mph71%29.67 "Hg11 mi
10:00 PM49 °FCool.2 mph72%29.67 "HgN/A
9:00 PM51 °FCool.5 mph68%29.65 "HgN/A
8:00 PM55 °FPartly sunny.2 mph57%29.62 "Hg14 mi
7:00 PM59 °FRefreshingly cool.3 mph47%29.60 "HgN/A
6:00 PM60 °FRefreshingly cool.5 mph44%29.59 "HgN/A
5:00 PM61 °FPartly sunny.6 mph42%29.60 "Hg14 mi
4:00 PM63 °FMild.9 mph44%29.60 "HgN/A
3:00 PM62 °FRefreshingly cool.9 mph42%29.61 "HgN/A
2:00 PM58 °FPassing clouds.6 mph55%29.64 "Hg16 mi
1:00 PM56 °FCool.6 mph68%29.67 "HgN/A
12:00 PM53 °FCool.7 mph67%29.70 "HgN/A
11:00 AM52 °FPassing clouds.2 mph65%29.72 "Hg16 mi
10:00 AM47 °FCool.2 mph72%29.75 "HgN/A
9:00 AM45 °FCool.2 mph80%29.76 "HgN/A
8:00 AM44 °FQuite cool.No wind82%29.76 "HgN/A
7:00 AM42 °FQuite cool.1 mph91%29.76 "HgN/A
6:00 AM42 °FQuite cool.1 mph92%29.76 "HgN/A
5:00 AM41 °FClear.1 mph89%29.77 "Hg10 mi
Weather by CustomWeather, © 2014

See weather overview